| time (UTC) | temp F | wind direction | speed MPH | gust MPH | rain 1hr in | rain 24hr in | rain mn in | humidity % | barometer mb |
| 20260508233842 | 50 | 162 | 1.0 | 5.0 | 0.00 | 0.00 | 0.00 | 43 | 1002.5 |
| 20260508233343 | 50 | 256 | 1.0 | 5.0 | 0.00 | 0.00 | 0.00 | 44 | 1002.5 |
| 20260508232841 | 50 | 258 | 2.0 | 5.0 | 0.00 | 0.00 | 0.00 | 43 | 1002.6 |
| 20260508232346 | 49 | 235 | 1.0 | 6.0 | 0.00 | 0.00 | 0.00 | 44 | 1002.8 |
| 20260508232342 | 50 | 252 | 1.0 | 4.0 | 0.00 | 0.00 | 0.00 | 46 | 1002.7 |
| 20260508231339 | 49 | 239 | 2.0 | 6.0 | 0.00 | 0.00 | 0.00 | 43 | 1002.9 |
| 20260508230840 | 49 | 212 | 2.0 | 7.0 | 0.00 | 0.00 | 0.00 | 43 | 1002.9 |
| 20260508230338 | 49 | 135 | 2.0 | 7.0 | 0.00 | 0.00 | 0.00 | 43 | 1002.9 |
| 20260508225838 | 49 | 128 | 3.0 | 8.0 | 0.00 | 0.00 | 0.00 | 42 | 1003.0 |
| 20260508225338 | 49 | 144 | 4.0 | 8.0 | 0.00 | 0.00 | 0.00 | 43 | 1003.1 |
| 20260508224837 | 49 | 191 | 4.0 | 8.0 | 0.00 | 0.00 | 0.00 | 42 | 1003.2 |
| 20260508224340 | 49 | 175 | 4.0 | 8.0 | 0.00 | 0.00 | 0.00 | 42 | 1003.3 |
| 20260508223836 | 49 | 258 | 3.0 | 8.0 | 0.00 | 0.00 | 0.00 | 43 | 1003.3 |
| 20260508223340 | 49 | 286 | 2.0 | 7.0 | 0.00 | 0.00 | 0.00 | 42 | 1003.4 |
| 20260508223336 | 50 | 201 | 3.0 | 8.0 | 0.00 | 0.00 | 0.00 | 42 | 1003.4 |
| 20260508222941 | 49 | 171 | 3.0 | 8.0 | 0.00 | 0.00 | 0.00 | 43 | 1003.5 |
| 20260508222442 | 49 | 268 | 3.0 | 8.0 | 0.00 | 0.00 | 0.00 | 44 | 1003.5 |
| 20260508221335 | 49 | 191 | 2.0 | 8.0 | 0.00 | 0.00 | 0.00 | 43 | 1003.6 |
| 20260508220834 | 48 | 301 | 4.0 | 9.0 | 0.00 | 0.00 | 0.00 | 43 | 1003.7 |
| 20260508220333 | 49 | 126 | 4.0 | 9.0 | 0.00 | 0.00 | 0.00 | 42 | 1003.8 |
| 20260508215833 | 49 | 193 | 3.0 | 9.0 | 0.00 | 0.00 | 0.00 | 46 | 1003.8 |
| 20260508215333 | 49 | 172 | 4.0 | 8.0 | 0.00 | 0.00 | 0.00 | 44 | 1003.9 |
| 20260508214834 | 48 | 138 | 4.0 | 8.0 | 0.00 | 0.00 | 0.00 | 45 | 1004.0 |
| 20260508214333 | 48 | 212 | 3.0 | 7.0 | 0.00 | 0.00 | 0.00 | 47 | 1004.0 |
| 20260508213833 | 48 | 239 | 3.0 | 8.0 | 0.00 | 0.00 | 0.00 | 46 | 1004.1 |
| 20260508213338 | 48 | 114 | 3.0 | 10.0 | 0.00 | 0.00 | 0.00 | 46 | 1004.2 |
| 20260508213334 | 48 | 127 | 3.0 | 10.0 | 0.00 | 0.00 | 0.00 | 45 | 1004.1 |
| 20260508212337 | 48 | 93 | 3.0 | 7.0 | 0.00 | 0.00 | 0.00 | 47 | 1004.4 |
| 20260508212333 | 48 | 207 | 3.0 | 8.0 | 0.00 | 0.00 | 0.00 | 47 | 1004.3 |
| 20260508211333 | 48 | 190 | 5.0 | 10.0 | 0.00 | 0.00 | 0.00 | 47 | 1004.5 |
| 20260508210834 | 48 | 196 | 5.0 | 10.0 | 0.00 | 0.00 | 0.00 | 47 | 1004.5 |
| 20260508210334 | 48 | 187 | 4.0 | 11.0 | 0.00 | 0.00 | 0.00 | 47 | 1004.5 |
| 20260508205834 | 48 | 116 | 4.0 | 11.0 | 0.00 | 0.00 | 0.00 | 48 | 1004.6 |
| 20260508205333 | 48 | 147 | 3.0 | 10.0 | 0.00 | 0.00 | 0.00 | 49 | 1004.7 |
| 20260508204833 | 48 | 187 | 2.0 | 7.0 | 0.00 | 0.00 | 0.00 | 51 | 1004.7 |
| 20260508204334 | 48 | 222 | 2.0 | 7.0 | 0.00 | 0.00 | 0.00 | 52 | 1004.8 |
| 20260508203834 | 47 | 193 | 3.0 | 7.0 | 0.00 | 0.00 | 0.00 | 51 | 1005.0 |
| 20260508203334 | 47 | 191 | 3.0 | 10.0 | 0.00 | 0.00 | 0.00 | 52 | 1005.1 |
| 20260508202834 | 47 | 174 | 2.0 | 10.0 | 0.00 | 0.00 | 0.00 | 53 | 1005.1 |
| 20260508202334 | 46 | 280 | 2.0 | 7.0 | 0.00 | 0.00 | 0.00 | 54 | 1005.1 |
| 20260508201833 | 46 | 199 | 3.0 | 7.0 | 0.00 | 0.00 | 0.00 | 53 | 1005.3 |
| 20260508201332 | 46 | 103 | 4.0 | 7.0 | 0.00 | 0.00 | 0.00 | 53 | 1005.3 |
| 20260508200831 | 46 | 99 | 4.0 | 8.0 | 0.00 | 0.00 | 0.00 | 52 | 1005.4 |
| 20260508200329 | 46 | 152 | 4.0 | 8.0 | 0.00 | 0.00 | 0.00 | 52 | 1005.4 |
| 20260508195829 | 47 | 194 | 4.0 | 8.0 | 0.00 | 0.00 | 0.00 | 54 | 1005.5 |
| 20260508195323 | 46 | 183 | 3.0 | 8.0 | 0.00 | 0.00 | 0.00 | 57 | 1005.5 |
| 20260508194824 | 46 | 189 | 2.0 | 7.0 | 0.00 | 0.00 | 0.00 | 58 | 1005.6 |
| 20260508194818 | 45 | 49 | 2.0 | 6.0 | 0.00 | 0.00 | 0.00 | 58 | 1005.6 |
| 20260508193819 | 45 | 130 | 4.0 | 7.0 | 0.00 | 0.00 | 0.00 | 59 | 1005.8 |
| 20260508193815 | 45 | 140 | 2.0 | 6.0 | 0.00 | 0.00 | 0.00 | 59 | 1005.7 |
| 20260508192813 | 45 | 188 | 4.0 | 8.0 | 0.00 | 0.00 | 0.00 | 59 | 1005.8 |
| 20260508192313 | 45 | 81 | 4.0 | 9.0 | 0.00 | 0.00 | 0.00 | 58 | 1005.9 |
| 20260508191817 | 45 | 100 | 4.0 | 9.0 | 0.00 | 0.00 | 0.00 | 56 | 1006.1 |
| 20260508191813 | 45 | 139 | 4.0 | 9.0 | 0.00 | 0.00 | 0.00 | 57 | 1005.9 |
| 20260508190812 | 45 | 152 | 3.0 | 8.0 | 0.00 | 0.00 | 0.00 | 59 | 1006.0 |
| 20260508190312 | 45 | 164 | 3.0 | 7.0 | 0.00 | 0.00 | 0.00 | 58 | 1006.1 |
| 20260508190307 | 45 | 110 | 3.0 | 8.0 | 0.00 | 0.00 | 0.00 | 59 | 1006.1 |
| 20260508185301 | 45 | 87 | 3.0 | 6.0 | 0.00 | 0.00 | 0.00 | 58 | 1006.2 |
| 20260508184759 | 44 | 178 | 2.0 | 5.0 | 0.00 | 0.00 | 0.00 | 60 | 1006.3 |
| 20260508184305 | 44 | 131 | 3.0 | 6.0 | 0.00 | 0.00 | 0.00 | 60 | 1006.4 |
| 20260508184259 | 44 | 115 | 3.0 | 6.0 | 0.00 | 0.00 | 0.00 | 62 | 1006.3 |
| 20260508183255 | 44 | 197 | 2.0 | 5.0 | 0.00 | 0.00 | 0.00 | 62 | 1006.5 |
| 20260508182759 | 44 | 205 | 2.0 | 6.0 | 0.00 | 0.00 | 0.00 | 63 | 1006.6 |
| 20260508182755 | 44 | 195 | 2.0 | 6.0 | 0.00 | 0.00 | 0.00 | 63 | 1006.6 |
| 20260508182359 | 44 | 137 | 3.0 | 5.0 | 0.00 | 0.00 | 0.00 | 64 | 1006.7 |
| 20260508181247 | 44 | 198 | 3.0 | 6.0 | 0.00 | 0.00 | 0.00 | 63 | 1006.7 |
| 20260508180746 | 44 | 220 | 2.0 | 6.0 | 0.00 | 0.00 | 0.00 | 65 | 1006.8 |
| 20260508180245 | 44 | 195 | 2.0 | 6.0 | 0.00 | 0.00 | 0.00 | 67 | 1006.8 |
| 20260508175746 | 43 | 189 | 2.0 | 5.0 | 0.00 | 0.00 | 0.00 | 67 | 1006.9 |
| 20260508175245 | 43 | 158 | 1.0 | 5.0 | 0.00 | 0.00 | 0.00 | 68 | 1007.0 |
| 20260508174746 | 42 | 195 | 1.0 | 5.0 | 0.00 | 0.00 | 0.00 | 71 | 1007.0 |
| 20260508174251 | 42 | 192 | 1.0 | 3.0 | 0.00 | 0.00 | 0.00 | 75 | 1007.2 |
| 20260508174245 | 42 | 180 | 1.0 | 4.0 | 0.00 | 0.00 | 0.00 | 72 | 1007.1 |
| 20260508173246 | 42 | 193 | 1.0 | 3.0 | 0.00 | 0.00 | 0.00 | 76 | 1007.2 |
| 20260508172745 | 41 | 193 | 1.0 | 3.0 | 0.00 | 0.00 | 0.00 | 77 | 1007.3 |
| 20260508172249 | 41 | 26 | 1.0 | 3.0 | 0.00 | 0.00 | 0.00 | 78 | 1007.4 |
| 20260508172245 | 41 | 64 | 0.0 | 2.0 | 0.00 | 0.00 | 0.00 | 78 | 1007.3 |
| 20260508171247 | 41 | 26 | 1.0 | 2.0 | 0.00 | 0.00 | 0.00 | 79 | 1007.4 |
| 20260508171243 | 41 | 26 | 1.0 | 3.0 | 0.00 | 0.00 | 0.00 | 78 | 1007.4 |
| 20260508170245 | 40 | 26 | 0.0 | 2.0 | 0.00 | 0.00 | 0.00 | 81 | 1007.6 |
| 20260508170241 | 40 | 26 | 0.0 | 2.0 | 0.00 | 0.00 | 0.00 | 80 | 1007.6 |
| 20260508165240 | 40 | 26 | 1.0 | 2.0 | 0.00 | 0.00 | 0.00 | 81 | 1007.6 |
| 20260508164741 | 40 | 26 | 0.0 | 2.0 | 0.00 | 0.00 | 0.00 | 82 | 1007.7 |
| 20260508164239 | 40 | 26 | 0.0 | 1.0 | 0.00 | 0.00 | 0.00 | 83 | 1007.7 |
| 20260508163739 | 39 | 26 | 0.0 | 2.0 | 0.00 | 0.00 | 0.00 | 83 | 1007.7 |
| 20260508163235 | 39 | 26 | 1.0 | 3.0 | 0.00 | 0.00 | 0.00 | 85 | 1007.8 |
| 20260508162735 | 39 | 26 | 1.0 | 3.0 | 0.00 | 0.00 | 0.00 | 85 | 1007.9 |
| 20260508162234 | 39 | 26 | 1.0 | 3.0 | 0.00 | 0.00 | 0.00 | 86 | 1007.9 |
| 20260508161737 | 38 | 26 | 1.0 | 2.0 | 0.00 | 0.00 | 0.00 | 88 | 1008.0 |
| 20260508161733 | 38 | 26 | 0.0 | 2.0 | 0.00 | 0.00 | 0.00 | 87 | 1008.0 |
| 20260508160735 | 38 | 26 | 1.0 | 3.0 | 0.00 | 0.00 | 0.00 | 89 | 1008.0 |
| 20260508160233 | 37 | 26 | 1.0 | 3.0 | 0.00 | 0.00 | 0.00 | 89 | 1008.0 |
| 20260508155733 | 37 | 26 | 1.0 | 3.0 | 0.00 | 0.00 | 0.00 | 89 | 1008.1 |
| 20260508155233 | 37 | 23 | 1.0 | 3.0 | 0.00 | 0.00 | 0.00 | 90 | 1008.2 |
| 20260508154733 | 37 | 330 | 1.0 | 2.0 | 0.00 | 0.00 | 0.00 | 90 | 1008.3 |
| 20260508154234 | 36 | 330 | 1.0 | 3.0 | 0.00 | 0.00 | 0.00 | 92 | 1008.5 |
| 20260508154230 | 36 | 330 | 1.0 | 3.0 | 0.00 | 0.00 | 0.00 | 91 | 1008.4 |
| 20260508153231 | 36 | 330 | 0.0 | 2.0 | 0.00 | 0.00 | 0.00 | 92 | 1008.5 |
| 20260508152735 | 35 | 330 | 1.0 | 3.0 | 0.00 | 0.00 | 0.00 | 92 | 1008.5 |
| 20260508152731 | 36 | 330 | 0.0 | 2.0 | 0.00 | 0.00 | 0.00 | 92 | 1008.7 |
| 20260508151730 | 35 | 330 | 1.0 | 3.0 | 0.00 | 0.00 | 0.00 | 93 | 1008.7 |
| 20260508151231 | 35 | 330 | 1.0 | 3.0 | 0.00 | 0.00 | 0.00 | 93 | 1008.8 |
| 20260508150731 | 35 | 330 | 1.0 | 2.0 | 0.00 | 0.00 | 0.00 | 93 | 1008.8 |
| 20260508150229 | 34 | 330 | 0.0 | 2.0 | 0.00 | 0.00 | 0.00 | 93 | 1009.0 |
| 20260508145727 | 34 | 330 | 0.0 | 1.0 | 0.00 | 0.00 | 0.00 | 93 | 1009.0 |
| 20260508145226 | 34 | 330 | 0.0 | 1.0 | 0.00 | 0.00 | 0.00 | 93 | 1009.0 |
| 20260508144725 | 34 | 330 | 0.0 | 2.0 | 0.00 | 0.00 | 0.00 | 93 | 1009.1 |
| 20260508144227 | 34 | 330 | 0.0 | 0.0 | 0.00 | 0.01 | 0.00 | 93 | 1009.2 |
| 20260508144223 | 34 | 330 | 0.0 | 2.0 | 0.00 | 0.00 | 0.00 | 93 | 1009.1 |
| 20260508143223 | 33 | 330 | 0.0 | 0.0 | 0.00 | 0.01 | 0.00 | 93 | 1009.2 |
| 20260508143219 | 33 | 330 | 0.0 | 1.0 | 0.00 | 0.01 | 0.00 | 93 | 1009.3 |
| 20260508142218 | 33 | 330 | 0.0 | 2.0 | 0.00 | 0.01 | 0.00 | 93 | 1009.4 |
| 20260508141717 | 33 | 330 | 1.0 | 2.0 | 0.00 | 0.01 | 0.00 | 93 | 1009.4 |
| 20260508141217 | 33 | 330 | 0.0 | 2.0 | 0.00 | 0.01 | 0.00 | 92 | 1009.5 |
| 20260508140721 | 33 | 330 | 0.0 | 1.0 | 0.00 | 0.01 | 0.00 | 92 | 1009.6 |
| 20260508140717 | 33 | 330 | 0.0 | 1.0 | 0.00 | 0.01 | 0.00 | 92 | 1009.5 |
| 20260508135719 | 33 | 330 | 0.0 | 2.0 | 0.00 | 0.01 | 0.00 | 92 | 1009.7 |
| 20260508135715 | 33 | 330 | 0.0 | 2.0 | 0.00 | 0.01 | 0.00 | 92 | 1009.6 |
| 20260508134715 | 33 | 330 | 0.0 | 1.0 | 0.00 | 0.01 | 0.00 | 92 | 1009.7 |
| 20260508134215 | 33 | 330 | 0.0 | 0.0 | 0.00 | 0.01 | 0.00 | 92 | 1009.8 |
| 20260508133715 | 33 | 330 | 0.0 | 2.0 | 0.00 | 0.01 | 0.00 | 92 | 1009.9 |
| 20260508133211 | 33 | 330 | 0.0 | 2.0 | 0.00 | 0.01 | 0.00 | 92 | 1009.9 |
| 20260508132711 | 33 | 330 | 0.0 | 2.0 | 0.00 | 0.01 | 0.00 | 92 | 1009.9 |
| 20260508132210 | 33 | 330 | 0.0 | 0.0 | 0.00 | 0.02 | 0.00 | 91 | 1009.9 |
| 20260508131708 | 33 | 330 | 0.0 | 0.0 | 0.00 | 0.02 | 0.00 | 91 | 1010.0 |
| 20260508131212 | 33 | 330 | 0.0 | 0.0 | 0.00 | 0.02 | 0.00 | 91 | 1010.1 |
| 20260508131207 | 34 | 330 | 0.0 | 0.0 | 0.00 | 0.03 | 0.00 | 91 | 1010.1 |
| 20260508130205 | 34 | 330 | 0.0 | 2.0 | 0.00 | 0.03 | 0.00 | 90 | 1010.1 |
| 20260508125705 | 34 | 330 | 1.0 | 2.0 | 0.00 | 0.04 | 0.00 | 90 | 1010.1 |
| 20260508125204 | 35 | 330 | 0.0 | 1.0 | 0.00 | 0.04 | 0.00 | 90 | 1010.1 |
| 20260508124706 | 35 | 330 | 0.0 | 0.0 | 0.00 | 0.04 | 0.00 | 90 | 1010.1 |
| 20260508124205 | 35 | 330 | 0.0 | 1.0 | 0.00 | 0.04 | 0.00 | 90 | 1010.3 |
| 20260508124201 | 35 | 330 | 0.0 | 1.0 | 0.00 | 0.04 | 0.00 | 90 | 1010.3 |
| 20260508123200 | 35 | 330 | 0.0 | 1.0 | 0.00 | 0.04 | 0.00 | 90 | 1010.3 |
| 20260508122657 | 35 | 330 | 0.0 | 1.0 | 0.00 | 0.04 | 0.00 | 90 | 1010.4 |
| 20260508122157 | 35 | 330 | 1.0 | 2.0 | 0.00 | 0.04 | 0.00 | 90 | 1010.5 |
| 20260508121656 | 35 | 330 | 1.0 | 2.0 | 0.00 | 0.04 | 0.00 | 89 | 1010.5 |
| 20260508121156 | 35 | 270 | 0.0 | 2.0 | 0.00 | 0.05 | 0.00 | 89 | 1010.6 |
| 20260508120657 | 36 | 270 | 0.0 | 0.0 | 0.00 | 0.05 | 0.00 | 89 | 1010.6 |
| 20260508120157 | 36 | 270 | 0.0 | 0.0 | 0.00 | 0.05 | 0.00 | 89 | 1010.6 |
| 20260508115656 | 36 | 270 | 0.0 | 0.0 | 0.00 | 0.05 | 0.00 | 88 | 1010.6 |
| 20260508115200 | 37 | 270 | 0.0 | 1.0 | 0.00 | 0.05 | 0.00 | 88 | 1010.9 |
| 20260508115156 | 36 | 270 | 0.0 | 0.0 | 0.00 | 0.05 | 0.00 | 88 | 1010.8 |
| 20260508114157 | 37 | 270 | 0.0 | 1.0 | 0.00 | 0.06 | 0.00 | 88 | 1010.9 |
| 20260508113657 | 37 | 270 | 0.0 | 2.0 | 0.00 | 0.06 | 0.00 | 87 | 1011.0 |
| 20260508113201 | 37 | 270 | 0.0 | 2.0 | 0.00 | 0.06 | 0.00 | 87 | 1011.1 |
| 20260508113157 | 37 | 270 | 0.0 | 2.0 | 0.00 | 0.06 | 0.00 | 87 | 1011.0 |
| 20260508112200 | 37 | 270 | 0.0 | 2.0 | 0.00 | 0.06 | 0.00 | 86 | 1011.2 |
| 20260508112156 | 37 | 270 | 0.0 | 2.0 | 0.00 | 0.06 | 0.00 | 87 | 1011.1 |
| 20260508111156 | 37 | 301 | 0.0 | 1.0 | 0.00 | 0.06 | 0.00 | 86 | 1011.2 |
| 20260508110657 | 38 | 301 | 0.0 | 1.0 | 0.00 | 0.06 | 0.00 | 86 | 1011.3 |
| 20260508110156 | 38 | 301 | 0.0 | 2.0 | 0.00 | 0.06 | 0.00 | 85 | 1011.4 |
| 20260508105700 | 38 | 301 | 0.0 | 2.0 | 0.00 | 0.06 | 0.00 | 85 | 1011.4 |
| 20260508105656 | 38 | 301 | 0.0 | 2.0 | 0.00 | 0.06 | 0.00 | 85 | 1011.4 |
| 20260508104656 | 38 | 301 | 0.0 | 2.0 | 0.00 | 0.06 | 0.00 | 85 | 1011.4 |
| 20260508104157 | 38 | 300 | 0.0 | 1.0 | 0.00 | 0.06 | 0.00 | 84 | 1011.4 |
| 20260508103656 | 38 | 300 | 0.0 | 2.0 | 0.00 | 0.06 | 0.00 | 84 | 1011.5 |
| 20260508103301 | 39 | 300 | 1.0 | 2.0 | 0.00 | 0.06 | 0.00 | 83 | 1011.5 |
| 20260508103156 | 38 | 300 | 0.0 | 2.0 | 0.00 | 0.06 | 0.00 | 83 | 1011.5 |
| 20260508102659 | 38 | 300 | 0.0 | 2.0 | 0.00 | 0.06 | 0.00 | 83 | 1011.6 |
| 20260508102655 | 39 | 300 | 1.0 | 2.0 | 0.00 | 0.06 | 0.00 | 83 | 1011.6 |
| 20260508101148 | 39 | 300 | 0.0 | 1.0 | 0.00 | 0.06 | 0.00 | 81 | 1011.6 |
| 20260508100646 | 39 | 300 | 0.0 | 2.0 | 0.00 | 0.06 | 0.00 | 80 | 1011.6 |
| 20260508100146 | 40 | 300 | 1.0 | 3.0 | 0.00 | 0.06 | 0.00 | 80 | 1011.6 |
| 20260508095646 | 40 | 300 | 0.0 | 3.0 | 0.00 | 0.06 | 0.00 | 80 | 1011.7 |
| 20260508095145 | 40 | 300 | 0.0 | 1.0 | 0.00 | 0.06 | 0.00 | 79 | 1011.7 |
| 20260508094646 | 40 | 300 | 1.0 | 3.0 | 0.00 | 0.06 | 0.00 | 77 | 1011.7 |
| 20260508094642 | 40 | 300 | 0.0 | 2.0 | 0.00 | 0.06 | 0.00 | 78 | 1011.7 |
| 20260508094246 | 40 | 300 | 1.0 | 3.0 | 0.00 | 0.06 | 0.00 | 78 | 1011.7 |
| 20260508093746 | 40 | 300 | 2.0 | 4.0 | 0.00 | 0.06 | 0.00 | 77 | 1011.7 |
| 20260508093245 | 40 | 301 | 2.0 | 4.0 | 0.00 | 0.06 | 0.00 | 76 | 1011.7 |
| 20260508092140 | 40 | 260 | 2.0 | 4.0 | 0.00 | 0.06 | 0.00 | 74 | 1011.7 |
| 20260508091639 | 40 | 291 | 1.0 | 4.0 | 0.00 | 0.06 | 0.00 | 72 | 1011.7 |
| 20260508091141 | 40 | 295 | 1.0 | 5.0 | 0.00 | 0.06 | 0.00 | 72 | 1011.8 |
| 20260508090640 | 40 | 295 | 1.0 | 5.0 | 0.00 | 0.06 | 0.00 | 72 | 1011.8 |
| 20260508090141 | 40 | 344 | 0.0 | 3.0 | 0.00 | 0.06 | 0.00 | 71 | 1011.9 |
| 20260508085644 | 40 | 19 | 1.0 | 3.0 | 0.00 | 0.07 | 0.00 | 70 | 1011.9 |
| 20260508085640 | 40 | 19 | 1.0 | 3.0 | 0.00 | 0.07 | 0.00 | 71 | 1011.9 |
| 20260508084640 | 40 | 19 | 0.0 | 2.0 | 0.00 | 0.07 | 0.00 | 69 | 1011.8 |
| 20260508084140 | 40 | 19 | 1.0 | 2.0 | 0.00 | 0.07 | 0.00 | 68 | 1011.8 |
| 20260508083640 | 41 | 19 | 0.0 | 2.0 | 0.00 | 0.07 | 0.00 | 67 | 1011.9 |
| 20260508083140 | 41 | 19 | 1.0 | 3.0 | 0.00 | 0.08 | 0.00 | 66 | 1011.9 |
| 20260508082640 | 41 | 19 | 1.0 | 3.0 | 0.00 | 0.08 | 0.00 | 66 | 1011.9 |
| 20260508082140 | 41 | 19 | 1.0 | 3.0 | 0.00 | 0.08 | 0.00 | 67 | 1012.0 |
| 20260508081640 | 41 | 19 | 1.0 | 3.0 | 0.00 | 0.08 | 0.00 | 66 | 1012.0 |
| 20260508081140 | 42 | 19 | 1.0 | 3.0 | 0.00 | 0.09 | 0.00 | 65 | 1012.1 |
| 20260508080640 | 42 | 19 | 1.0 | 3.0 | 0.00 | 0.10 | 0.00 | 65 | 1012.2 |
| 20260508080140 | 42 | 19 | 0.0 | 2.0 | 0.00 | 0.11 | 0.00 | 64 | 1012.1 |
| 20260508075638 | 42 | 19 | 1.0 | 3.0 | 0.00 | 0.12 | 0.11 | 63 | 1012.2 |
| 20260508075134 | 42 | 19 | 1.0 | 3.0 | 0.00 | 0.14 | 0.11 | 61 | 1012.2 |
| 20260508074635 | 43 | 19 | 0.0 | 3.0 | 0.00 | 0.15 | 0.11 | 60 | 1012.3 |
| 20260508074135 | 43 | 164 | 1.0 | 3.0 | 0.00 | 0.16 | 0.11 | 60 | 1012.3 |
| 20260508073636 | 43 | 164 | 1.0 | 4.0 | 0.00 | 0.17 | 0.11 | 60 | 1012.4 |
| 20260508073134 | 43 | 160 | 1.0 | 5.0 | 0.00 | 0.18 | 0.11 | 60 | 1012.4 |
| 20260508072636 | 43 | 160 | 2.0 | 5.0 | 0.00 | 0.18 | 0.11 | 60 | 1012.5 |
| 20260508072631 | 43 | 144 | 1.0 | 4.0 | 0.00 | 0.18 | 0.11 | 60 | 1012.5 |
| 20260508072236 | 43 | 164 | 2.0 | 5.0 | 0.00 | 0.18 | 0.11 | 60 | 1012.5 |
| 20260508071130 | 43 | 162 | 3.0 | 10.0 | 0.00 | 0.19 | 0.11 | 60 | 1012.6 |
| 20260508070630 | 44 | 126 | 3.0 | 10.0 | 0.00 | 0.20 | 0.11 | 60 | 1012.6 |
| 20260508070131 | 44 | 145 | 3.0 | 9.0 | 0.00 | 0.20 | 0.11 | 61 | 1012.6 |
| 20260508065631 | 44 | 147 | 4.0 | 9.0 | 0.00 | 0.20 | 0.11 | 61 | 1012.6 |
| 20260508065131 | 44 | 139 | 6.0 | 13.0 | 0.00 | 0.21 | 0.11 | 61 | 1012.6 |
| 20260508064630 | 44 | 156 | 7.0 | 14.0 | 0.00 | 0.22 | 0.11 | 61 | 1012.6 |
| 20260508064130 | 44 | 163 | 6.0 | 14.0 | 0.00 | 0.23 | 0.11 | 61 | 1012.6 |
| 20260508063630 | 44 | 156 | 5.0 | 12.0 | 0.00 | 0.25 | 0.11 | 61 | 1012.6 |
| 20260508063131 | 44 | 199 | 4.0 | 10.0 | 0.00 | 0.26 | 0.11 | 62 | 1012.6 |
| 20260508062633 | 44 | 180 | 4.0 | 9.0 | 0.00 | 0.26 | 0.11 | 62 | 1012.6 |
| 20260508062131 | 44 | 195 | 5.0 | 13.0 | 0.00 | 0.26 | 0.11 | 62 | 1012.7 |
| 20260508061630 | 44 | 191 | 5.0 | 15.0 | 0.00 | 0.27 | 0.11 | 62 | 1012.7 |
| 20260508061130 | 44 | 179 | 5.0 | 15.0 | 0.00 | 0.28 | 0.11 | 62 | 1012.7 |
| 20260508060631 | 44 | 170 | 5.0 | 9.0 | 0.00 | 0.28 | 0.11 | 62 | 1012.7 |
| 20260508060131 | 44 | 166 | 5.0 | 13.0 | 0.00 | 0.28 | 0.11 | 62 | 1012.8 |
| 20260508055627 | 44 | 148 | 5.0 | 13.0 | 0.00 | 0.29 | 0.11 | 61 | 1012.7 |
| 20260508055127 | 44 | 156 | 4.0 | 9.0 | 0.00 | 0.29 | 0.11 | 62 | 1012.8 |
| 20260508054627 | 44 | 166 | 3.0 | 9.0 | 0.00 | 0.29 | 0.11 | 63 | 1012.8 |
| 20260508054127 | 44 | 198 | 3.0 | 8.0 | 0.00 | 0.29 | 0.11 | 64 | 1012.7 |
| 20260508053631 | 44 | 200 | 4.0 | 10.0 | 0.00 | 0.30 | 0.11 | 63 | 1012.8 |
| 20260508053626 | 44 | 210 | 4.0 | 10.0 | 0.00 | 0.30 | 0.11 | 64 | 1012.8 |
| 20260508052628 | 45 | 179 | 4.0 | 12.0 | 0.00 | 0.31 | 0.11 | 62 | 1012.8 |
| 20260508052624 | 45 | 169 | 4.0 | 8.0 | 0.00 | 0.30 | 0.11 | 62 | 1012.7 |
| 20260508051624 | 45 | 160 | 4.0 | 12.0 | 0.00 | 0.31 | 0.11 | 63 | 1012.8 |
| 20260508051124 | 45 | 140 | 5.0 | 10.0 | 0.00 | 0.31 | 0.11 | 63 | 1012.8 |
| 20260508050624 | 45 | 149 | 4.0 | 14.0 | 0.00 | 0.32 | 0.11 | 63 | 1012.8 |
| 20260508050124 | 45 | 158 | 5.0 | 14.0 | 0.00 | 0.32 | 0.11 | 61 | 1012.8 |
| 20260508045625 | 45 | 119 | 6.0 | 14.0 | 0.00 | 0.32 | 0.11 | 59 | 1012.8 |
| 20260508045124 | 46 | 168 | 5.0 | 14.0 | 0.00 | 0.32 | 0.11 | 58 | 1012.9 |
| 20260508044624 | 46 | 193 | 3.0 | 9.0 | 0.00 | 0.32 | 0.11 | 59 | 1012.9 |
| 20260508044128 | 46 | 148 | 3.0 | 9.0 | 0.00 | 0.32 | 0.11 | 59 | 1013.0 |
| 20260508044124 | 46 | 166 | 3.0 | 9.0 | 0.00 | 0.32 | 0.11 | 59 | 1012.9 |
| 20260508043125 | 46 | 141 | 2.0 | 6.0 | 0.00 | 0.32 | 0.11 | 59 | 1013.1 |
| 20260508042629 | 47 | 97 | 2.0 | 8.0 | 0.00 | 0.32 | 0.11 | 59 | 1013.0 |
| 20260508042625 | 46 | 171 | 3.0 | 8.0 | 0.00 | 0.32 | 0.11 | 60 | 1013.1 |
| 20260508042230 | 47 | 122 | 1.0 | 7.0 | 0.00 | 0.32 | 0.11 | 60 | 1013.1 |
| 20260508041118 | 47 | 341 | 1.0 | 3.0 | 0.00 | 0.32 | 0.11 | 61 | 1013.1 |
| 20260508040616 | 47 | 341 | 1.0 | 4.0 | 0.00 | 0.32 | 0.11 | 61 | 1013.3 |
| 20260508040116 | 47 | 338 | 1.0 | 4.0 | 0.00 | 0.32 | 0.11 | 61 | 1013.2 |
| 20260508035620 | 47 | 347 | 1.0 | 3.0 | 0.00 | 0.32 | 0.11 | 61 | 1013.3 |
| 20260508035616 | 47 | 15 | 1.0 | 3.0 | 0.00 | 0.32 | 0.11 | 62 | 1013.2 |
| 20260508034616 | 47 | 350 | 1.0 | 3.0 | 0.00 | 0.32 | 0.11 | 61 | 1013.3 |
| 20260508034116 | 47 | 347 | 2.0 | 5.0 | 0.00 | 0.32 | 0.11 | 61 | 1013.5 |
| 20260508033616 | 46 | 356 | 2.0 | 5.0 | 0.00 | 0.32 | 0.11 | 61 | 1013.5 |
| 20260508033117 | 46 | 340 | 2.0 | 4.0 | 0.00 | 0.32 | 0.11 | 62 | 1013.5 |
| 20260508032621 | 46 | 327 | 2.0 | 4.0 | 0.00 | 0.32 | 0.11 | 62 | 1013.6 |
| 20260508032617 | 46 | 319 | 2.0 | 4.0 | 0.00 | 0.32 | 0.11 | 62 | 1013.5 |
| 20260508031615 | 46 | 342 | 2.0 | 5.0 | 0.00 | 0.32 | 0.11 | 61 | 1013.6 |
| 20260508031110 | 46 | 6 | 2.0 | 5.0 | 0.00 | 0.32 | 0.11 | 63 | 1013.6 |
| 20260508030610 | 46 | 344 | 3.0 | 5.0 | 0.00 | 0.32 | 0.11 | 63 | 1013.6 |
| 20260508030110 | 46 | 313 | 3.0 | 8.0 | 0.00 | 0.32 | 0.11 | 63 | 1013.8 |
| 20260508025610 | 46 | 349 | 3.0 | 8.0 | 0.00 | 0.32 | 0.11 | 63 | 1013.7 |
| 20260508025110 | 46 | 351 | 2.0 | 5.0 | 0.00 | 0.32 | 0.11 | 65 | 1013.7 |
| 20260508024610 | 46 | 334 | 2.0 | 5.0 | 0.00 | 0.32 | 0.11 | 63 | 1013.8 |
| 20260508024110 | 46 | 339 | 2.0 | 6.0 | 0.00 | 0.32 | 0.11 | 64 | 1013.9 |
| 20260508023610 | 46 | 333 | 2.0 | 6.0 | 0.00 | 0.32 | 0.11 | 65 | 1013.9 |
| 20260508023108 | 46 | 321 | 2.0 | 5.0 | 0.00 | 0.32 | 0.11 | 64 | 1013.9 |
| 20260508022608 | 46 | 291 | 1.0 | 3.0 | 0.00 | 0.32 | 0.11 | 65 | 1013.9 |
| 20260508022109 | 46 | 329 | 2.0 | 5.0 | 0.00 | 0.32 | 0.11 | 66 | 1013.9 |
| 20260508021608 | 46 | 330 | 2.0 | 5.0 | 0.00 | 0.32 | 0.11 | 65 | 1014.1 |
| 20260508021108 | 46 | 356 | 1.0 | 4.0 | 0.00 | 0.32 | 0.11 | 64 | 1014.2 |
| 20260508020608 | 46 | 31 | 2.0 | 4.0 | 0.00 | 0.32 | 0.11 | 65 | 1014.2 |
| 20260508020108 | 46 | 29 | 3.0 | 5.0 | 0.00 | 0.32 | 0.11 | 64 | 1014.2 |
| 20260508015606 | 46 | 29 | 3.0 | 6.0 | 0.00 | 0.32 | 0.11 | 65 | 1014.2 |
| 20260508015107 | 46 | 6 | 3.0 | 7.0 | 0.00 | 0.32 | 0.11 | 66 | 1014.2 |
| 20260508014611 | 46 | 325 | 3.0 | 6.0 | 0.00 | 0.32 | 0.11 | 65 | 1014.3 |
| 20260508014606 | 46 | 12 | 4.0 | 7.0 | 0.00 | 0.32 | 0.11 | 66 | 1014.3 |
| 20260508013608 | 46 | 334 | 3.0 | 7.0 | 0.00 | 0.32 | 0.11 | 65 | 1014.3 |
| 20260508013106 | 46 | 6 | 2.0 | 7.0 | 0.00 | 0.32 | 0.11 | 64 | 1014.3 |
| 20260508012610 | 46 | 324 | 3.0 | 6.0 | 0.00 | 0.32 | 0.11 | 64 | 1014.5 |
| 20260508012606 | 46 | 59 | 2.0 | 5.0 | 0.00 | 0.32 | 0.11 | 65 | 1014.4 |
| 20260508011606 | 46 | 329 | 2.0 | 6.0 | 0.00 | 0.32 | 0.11 | 63 | 1014.5 |
| 20260508011106 | 46 | 297 | 2.0 | 4.0 | 0.00 | 0.32 | 0.11 | 63 | 1014.5 |
| 20260508010604 | 46 | 297 | 2.0 | 4.0 | 0.00 | 0.32 | 0.11 | 63 | 1014.6 |
| 20260508010105 | 46 | 280 | 2.0 | 4.0 | 0.00 | 0.32 | 0.11 | 63 | 1014.6 |
| 20260508005605 | 46 | 299 | 2.0 | 5.0 | 0.00 | 0.32 | 0.11 | 62 | 1014.7 |
| 20260508005108 | 46 | 320 | 2.0 | 5.0 | 0.00 | 0.32 | 0.11 | 62 | 1014.7 |
| 20260508005104 | 46 | 280 | 2.0 | 5.0 | 0.00 | 0.32 | 0.11 | 64 | 1014.7 |
| 20260508004103 | 46 | 320 | 1.0 | 4.0 | 0.00 | 0.32 | 0.11 | 64 | 1014.8 |
| 20260508003602 | 46 | 320 | 1.0 | 4.0 | 0.00 | 0.33 | 0.11 | 65 | 1014.8 |
| 20260508003102 | 46 | 294 | 1.0 | 5.0 | 0.00 | 0.33 | 0.11 | 65 | 1014.8 |
| 20260508002602 | 45 | 297 | 1.0 | 5.0 | 0.00 | 0.33 | 0.11 | 65 | 1014.9 |
| 20260508002106 | 45 | 28 | 2.0 | 4.0 | 0.00 | 0.33 | 0.11 | 66 | 1015.0 |
| 20260508002102 | 45 | 320 | 1.0 | 4.0 | 0.00 | 0.33 | 0.11 | 66 | 1014.9 |
| 20260508001102 | 45 | 314 | 3.0 | 5.0 | 0.00 | 0.33 | 0.11 | 66 | 1015.1 |
| 20260508000602 | 45 | 303 | 3.0 | 5.0 | 0.00 | 0.33 | 0.11 | 67 | 1015.1 |
| 20260507235602 | 45 | 297 | 2.0 | 7.0 | 0.00 | 0.34 | 0.11 | 67 | 1015.1 |
| 20260507235102 | 45 | 285 | 1.0 | 6.0 | 0.00 | 0.34 | 0.11 | 66 | 1015.2 |
| 20260507234601 | 45 | 344 | 2.0 | 6.0 | 0.00 | 0.34 | 0.11 | 66 | 1015.2 |
| 20260507234101 | 45 | 288 | 3.0 | 7.0 | 0.00 | 0.35 | 0.11 | 68 | 1015.3 |